Location: Champs
(48.8539°N, 2.6040°E)
Time: 02:06:09
(UTC+00:00)

USA 308 - Pass Details

Date: 31 May 2022
Orbit: 549 x 558 km, 54.0° (Epoch: 14 June)

Event Time Altitude Azimuth Distance (km) Brightness Sun altitude
Rises 01:56:11 0° 280° (W) 2,737 6.2 -13.6°
Reaches altitude 10° 01:58:31 10° 288° (WNW) 1,845 5.4 -13.4°
Maximum altitude 02:02:29 40° 358° (N) 832 4.2 -13.1°
Drops below altitude 10° 02:06:28 10° 70° (ENE) 1,851 6.3 -12.7°
Sets 02:08:50 0° 78° (ENE) 2,748 7.1 -12.5°
